Regional Weather Roundup
Issued by NWS

Home | Current Version | Previous Version | Text Only | Print | Product List | Glossary Off
Versions: 1 2 3 4 5 6 7 8 9 10 11 12 13 14 15 16 17 18 19 20 21 22 23 24 25 26 27 28 29 30 31 32 33 34 35 36 37 38 39 40 41 42 43 44 45 46 47 48 49 50

000
ASUS43 KBIS 020910
RWRND

NORTH DAKOTA REGIONAL WEATHER ROUNDUP
NATIONAL WEATHER SERVICE BISMARCK ND
400 AM CDT WED SEP 02 2015

NOTE: "FAIR" INDICATES FEW OR NO CLOUDS BELOW 12,000 FEET WITH NO
SIGNIFICANT WEATHER AND/OR OBSTRUCTIONS TO VISIBILITY.


NDZ001>003-009>011-017-021000-
NORTHWEST NORTH DAKOTA

CITY           SKY/WX    TMP DP  RH WIND       PRES   REMARKS
WILLISTON      CLEAR     60  45  57 N8        29.77F
MINOT          CLEAR     61  59  93 CALM      29.76F
$$

NDZ018>021-031>035-040>046-021000-
SOUTHWEST NORTH DAKOTA

CITY           SKY/WX    TMP DP  RH WIND       PRES   REMARKS
BISMARCK       CLEAR     65  63  93 E6        29.79R
DICKINSON      CLEAR     58  53  84 SW3       29.80S
GARRISON         N/A     60  58  92 NE3       29.78S
HETTINGER ARPT CLEAR     50  46  86 W3        29.84R
$$

NDZ004>008-012>016-024-026-027-054-021000-
NORTHEAST NORTH DAKOTA

CITY           SKY/WX    TMP DP  RH WIND       PRES   REMARKS
GRAND FORKS    CLEAR     64  60  87 SE6       29.81S
GRND FRKS AFB  CLEAR     63  60  90 SE5       29.81S
DEVILS LAKE    PTCLDY    68  61  77 SE7       29.80R
$$

NDZ022-023-025-028>030-036>039-047>053-021000-
SOUTHEAST NORTH DAKOTA

CITY           SKY/WX    TMP DP  RH WIND       PRES   REMARKS
FARGO          CLEAR     71  68  90 SE7       29.83S
JAMESTOWN      CLEAR     65  62  90 SE6       29.82R
$$




USA.gov is the U.S. government's official web portal to all federal, state and local government web resources and services.